Dewpoint
71 71 71 71 72 72 72 72 72 72 71 71 71 71 71 70 70 70 70 69 69 69 70 70 70 70 70 70 70 70 70 69 69 69 69 69 69 69 69 69 69 68 68 68 68 68 68 66 64 62 62 63 64 65 66 66 67 67 67 67 67 67 67 68 68 68 68 68 68 68 68 68 68 68 69 69 69 68 68 67 67 67 67 67 67 67 67 67 67 67 67 67 67 67 67 67 67 66 66 65 65 65 65
71 71 71 71 72 72 72 72 72 72 71 71 71 71 71 70 70 70 70 70 70 70 70 70 70 70 70 70 70 70 70 69 69 69 69 69 69 69 69 69 68 68 68 68 68 68 68 66 64 62 61 62 64 66 66 67 67 67 67 67 67 67 67 69 69 68 68 68 68 68 68 68 69 69 70 70 70 69 68 68 67 67 67 67 67 67 67 67 67 67 67 67 67 67 67 67 67 67 67 67 66 66 66
71 71 71 71 72 72 72 72 72 71 71 71 71 71 71 70 70 70 70 70 70 70 70 70 70 70 70 70 70 70 70 69 69 69 69 69 69 69 69 68 68 68 68 69 68 68 68 67 65 63 61 62 63 66 67 67 67 67 67 67 67 67 68 69 69 69 68 68 68 68 68 68 69 70 71 70 70 69 68 68 68 68 67 67 67 67 67 67 67 67 67 67 67 67 67 67 67 67 67 67 67 67 67
71 71 71 71 72 72 72 72 72 71 71 71 71 71 70 70 70 70 70 70 70 70 70 70 70 70 70 70 70 70 70 69 69 69 69 69 69 69 68 68 68 68 69 69 69 68 67 66 65 63 61 61 62 65 67 67 67 67 67 68 67 67 69 69 69 69 69 69 68 68 68 68 69 69 70 70 70 69 68 68 68 68 68 68 67 67 67 67 67 67 67 67 67 67 67 67 67 67 67 67 67 67 67
71 71 71 71 72 72 72 71 71 71 71 71 71 71 70 70 70 70 70 70 70 70 71 71 71 70 70 70 70 70 70 69 69 69 69 69 69 68 68 68 68 69 69 69 69 68 67 66 65 64 62 61 62 64 67 67 67 67 67 67 68 68 70 69 69 69 69 68 68 68 68 68 69 69 70 70 70 69 68 69 69 69 69 68 68 67 67 67 67 67 67 68 68 68 67 67 67 67 67 67 67 67 67
71 71 71 72 72 72 71 71 71 71 71 71 71 71 70 70 70 70 70 70 70 71 71 71 71 70 70 70 70 70 70 69 69 69 69 69 69 68 68 68 69 69 69 69 69 68 67 66 65 64 63 62 62 64 66 67 67 67 67 67 68 70 71 70 69 69 68 68 68 68 68 68 69 69 70 70 70 69 69 69 69 69 69 69 69 68 67 67 67 67 67 67 68 68 68 68 68 67 67 67 67 67 67
71 71 72 72 72 71 71 71 71 71 71 71 71 70 70 70 70 70 70 70 71 71 71 71 71 70 70 70 70 70 69 69 69 69 69 69 68 68 68 69 69 69 69 69 69 68 67 66 65 64 64 62 62 64 66 66 67 67 67 67 69 71 71 70 69 69 68 68 68 68 68 68 68 69 69 70 69 69 69 69 69 69 69 69 69 69 68 68 67 67 67 67 67 68 68 68 68 68 67 67 67 67 67
71 72 72 72 71 71 71 71 71 71 71 71 71 70 70 70 70 70 70 70 71 71 71 71 70 70 70 70 70 70 69 69 69 69 68 68 68 68 69 69 69 69 69 68 68 68 68 67 65 64 64 63 64 65 66 66 66 67 67 67 68 70 70 70 69 69 68 68 68 67 67 67 68 68 69 69 69 69 69 69 69 69 69 69 69 69 69 68 68 67 67 67 67 67 67 67 67 67 67 67 67 66 66
72 72 72 71 71 71 71 71 71 71 71 71 71 70 70 70 70 70 70 70 70 71 71 71 70 70 70 70 70 70 69 69 69 69 68 68 68 68 68 68 68 68 68 68 68 68 68 66 65 65 64 64 65 66 66 67 67 67 67 67 68 69 70 69 69 69 68 68 67 67 67 67 67 68 69 69 69 69 69 68 68 68 69 69 69 69 69 69 68 67 67 67 66 66 66 67 67 67 67 66 66 66 65
72 72 72 71 71 71 71 71 71 71 71 71 71 70 70 70 70 70 70 70 70 70 71 71 70 70 70 70 70 69 69 69 69 69 68 68 68 68 68 68 68 68 68 67 67 67 67 66 65 64 64 64 65 66 67 67 67 67 67 67 68 69 69 69 69 68 68 68 68 67 67 67 67 67 68 69 69 69 68 68 68 68 68 69 69 69 69 69 68 67 66 66 66 66 66 65 65 65 65 65 65 64 64
72 72 72 71 71 71 71 71 71 71 71 71 70 70 70 70 70 70 70 70 70 70 70 70 70 70 70 70 70 69 69 69 69 69 68 68 68 68 68 67 67 67 67 67 67 67 67 66 65 64 64 64 65 66 67 67 67 67 67 68 70 70 69 69 69 68 68 68 67 67 67 67 67 68 68 68 68 68 68 68 68 68 68 69 69 69 69 69 68 67 66 66 66 66 65 65 64 64 64 64 64 64 64
72 72 72 71 71 71 71 71 71 71 71 71 70 70 70 70 70 70 70 70 70 70 70 70 70 70 70 70 70 69 69 69 69 69 68 68 68 68 67 67 67 67 67 67 67 67 65 65 64 64 64 64 65 66 67 67 67 67 67 70 70 70 69 69 68 68 68 67 67 67 67 67 67 68 68 68 68 68 68 68 68 68 68 69 69 69 69 69 68 67 66 66 66 66 66 65 64 64 64 64 64 64 64
72 72 71 71 71 71 71 71 71 71 71 70 70 70 70 70 70 70 70 70 70 70 70 70 70 70 70 70 70 69 69 69 69 69 68 68 67 67 67 67 67 67 67 67 67 66 63 64 64 64 64 64 64 65 67 67 67 67 68 70 71 70 69 69 68 68 68 68 68 68 68 67 68 68 68 68 68 68 69 68 68 68 68 69 69 69 69 68 68 67 66 66 66 66 66 65 64 64 64 64 64 64 64
71 71 71 71 71 71 71 71 71 71 71 70 70 70 70 70 70 70 70 70 70 70 70 70 70 70 70 70 69 69 69 69 69 68 68 68 67 67 67 67 67 67 67 66 65 65 64 64 64 64 64 63 64 66 67 67 67 67 69 70 70 70 69 69 68 68 68 68 68 68 68 68 68 68 68 68 68 69 69 69 69 69 69 69 69 69 69 68 68 67 67 66 66 66 66 65 65 64 64 64 64 64 65
70 70 69 70 71 71 71 71 71 71 71 71 71 70 70 70 70 70 70 70 70 70 70 70 70 70 70 70 69 69 69 69 69 68 68 67 67 67 66 67 67 67 67 65 64 63 63 63 62 62 62 63 64 66 67 67 67 68 70 70 70 69 69 68 68 67 67 67 67 67 67 68 68 68 68 68 68 69 69 69 69 69 69 69 69 69 69 68 68 67 67 66 66 66 65 65 64 64 64 64 64 64 65
68 68 69 70 71 71 71 71 71 71 71 71 71 71 71 71 71 71 71 71 70 70 70 70 70 70 70 70 70 69 68 68 68 68 67 67 67 66 66 67 67 66 65 63 62 62 62 60 59 58 60 62 64 65 65 66 67 68 70 69 69 68 68 67 67 67 67 67 67 67 67 67 67 67 67 68 68 68 69 69 69 69 69 69 69 69 69 68 68 68 67 67 66 66 65 65 64 64 64 64 64 64 64
67 67 69 70 71 71 71 71 71 71 71 71 71 71 71 71 71 71 71 71 71 70 70 70 70 70 70 70 69 68 66 66 66 67 66 66 66 66 66 66 65 64 61 60 59 59 59 58 57 57 58 61 62 63 64 64 66 68 69 68 67 67 66 66 65 65 65 64 64 64 64 65 65 66 66 67 67 68 68 68 69 69 69 69 69 69 69 69 68 68 67 67 67 66 66 65 64 64 64 64 64 64 64
67 68 70 70 71 71 71 71 71 71 71 71 71 71 71 71 71 71 71 71 71 70 70 70 70 70 70 69 68 66 63 63 63 63 63 64 64 64 64 64 63 61 58 57 57 57 57 55 55 55 57 59 60 62 63 64 66 67 67 66 65 64 64 63 63 62 62 62 62 61 61 62 62 63 64 65 66 67 67 67 68 68 68 69 69 69 69 69 69 68 68 67 67 67 67 66 65 65 65 64 64 64 64
68 69 70 70 70 70 70 71 71 71 71 71 71 71 71 71 71 70 71 71 70 70 70 70 70 70 69 68 66 62 61 60 60 60 59 60 61 62 61 61 59 58 56 56 56 56 54 53 52 53 54 57 59 61 63 64 65 66 65 64 63 62 62 61 61 60 59 59 58 58 58 59 59 60 62 62 64 65 66 66 67 67 68 68 68 69 69 69 69 68 68 67 67 67 67 67 66 65 65 65 64 64 64
68 69 69 69 69 69 70 70 71 71 71 71 71 71 71 71 70 70 70 70 70 70 70 70 70 69 68 66 62 59 58 57 56 56 56 56 57 57 57 57 56 55 55 55 55 53 51 50 49 50 51 54 58 61 62 63 64 64 63 62 61 60 59 58 58 58 58 57 57 56 56 57 58 58 59 61 62 63 64 64 65 66 67 67 67 67 68 69 69 68 68 68 68 68 68 67 67 66 66 65 65 64 64
68 68 68 68 68 68 68 69 69 70 70 70 70 69 70 69 70 70 69 70 70 70 70 69 67 66 65 62 60 58 57 56 55 55 55 54 54 54 54 55 55 55 55 53 51 49 48 49 48 48 48 52 56 59 60 62 63 63 62 61 59 58 57 57 56 57 57 57 56 56 56 57 57 57 58 59 61 62 62 63 64 64 65 65 66 66 67 68 68 68 68 68 68 68 68 68 67 67 66 65 65 65 64
67 67 67 66 66 66 66 66 67 68 69 69 68 68 67 67 67 66 66 66 67 67 67 66 64 63 63 62 60 58 57 57 56 56 55 55 55 54 54 54 53 53 51 49 48 47 46 47 47 47 46 49 53 57 60 62 63 62 61 59 58 57 56 56 56 56 56 56 57 57 57 57 57 58 58 58 59 60 61 62 62 63 63 64 64 65 65 66 67 67 68 68 68 69 69 68 68 67 67 66 65 65 65
65 65 65 65 65 65 65 65 65 65 66 67 67 67 66 66 65 64 63 61 61 61 62 62 61 60 60 60 60 59 58 58 57 56 55 54 53 53 52 50 49 48 47 45 45 46 46 47 47 46 46 46 50 55 61 63 63 62 59 58 57 56 56 56 56 56 56 56 57 57 57 58 58 58 58 58 58 59 59 60 61 62 62 63 63 64 64 64 65 66 67 68 68 69 69 69 68 68 67 66 66 65 65
64 64 64 64 65 65 65 65 64 64 64 64 65 65 65 64 64 63 62 60 58 57 58 58 58 57 56 57 57 56 55 54 53 52 50 49 49 48 46 44 44 44 44 44 44 45 46 46 46 46 45 45 49 55 60 62 62 61 58 57 56 56 56 56 56 56 56 57 57 57 58 58 58 58 58 58 58 58 58 59 59 60 61 62 62 62 63 63 64 65 66 67 68 69 69 69 69 68 68 67 66 65 65
64 64 63 64 64 64 64 64 64 64 63 63 63 62 62 62 62 62 61 58 57 55 56 55 53 52 49 49 49 48 48 47 47 46 45 44 44 43 43 42 41 41 42 42 43 44 45 45 45 45 44 45 49 55 60 62 62 62 58 57 56 56 56 56 56 56 56 57 57 58 58 58 58 58 58 58 58 58 58 58 58 59 60 60 61 62 62 63 64 64 65 66 67 69 69 69 69 69 69 68 67 66 66
63 62 62 62 62 62 61 61 62 62 62 61 60 59 58 59 58 58 57 55 54 53 52 50 49 47 45 44 44 43 44 44 44 43 43 43 43 43 42 42 41 41 40 41 42 44 44 44 44 44 44 45 50 56 60 61 62 62 60 58 57 56 56 56 56 56 57 57 57 57 58 58 58 58 58 58 58 58 58 58 58 58 59 59 60 61 62 62 63 63 64 65 66 67 69 69 69 69 69 68 67 67 67
61 60 59 58 57 57 57 57 58 58 57 57 55 54 53 53 53 53 52 51 50 49 48 47 46 46 46 45 44 44 44 44 44 44 44 44 44 43 43 43 42 42 41 41 42 43 43 44 44 43 43 45 50 55 58 61 62 62 61 58 57 56 56 56 57 57 57 57 57 57 57 58 58 57 57 58 58 58 58 58 58 58 58 58 59 60 60 61 62 62 63 63 65 66 67 68 69 69 69 68 68 67 67
58 57 55 54 53 53 53 53 53 53 52 52 52 51 51 50 50 50 50 50 49 49 48 48 48 48 48 47 47 47 48 46 45 45 45 45 44 44 43 43 43 42 41 42 42 42 43 43 44 43 43 45 49 53 57 60 62 63 62 59 57 56 56 56 57 57 57 58 57 57 57 58 57 57 57 57 58 58 58 58 58 58 58 58 58 58 59 60 61 62 62 62 63 64 66 67 68 69 69 68 68 68 68
55 54 53 52 52 52 51 51 51 50 50 49 49 49 50 49 49 49 49 49 49 49 49 49 49 49 49 48 48 49 50 48 47 46 46 46 45 44 43 43 43 42 42 42 42 42 43 44 44 44 44 44 47 51 55 58 61 62 62 60 58 57 56 57 57 58 58 58 58 58 58 58 58 58 58 58 58 57 57 57 57 57 57 57 57 58 58 59 59 60 61 62 62 63 64 65 67 67 68 68 68 68 68
52 52 52 51 50 50 50 50 50 50 50 49 49 49 49 49 49 49 49 49 49 49 49 49 49 49 49 49 49 49 51 49 48 47 47 46 46 45 44 44 43 42 42 41 42 43 44 44 44 44 45 44 45 47 51 56 59 61 62 61 59 58 57 57 58 58 58 58 59 59 59 59 59 58 58 58 58 58 57 57 57 56 56 56 57 57 57 58 58 59 60 60 61 62 62 63 64 66 67 68 68 68 68
51 51 51 50 50 49 49 49 50 50 50 49 49 49 49 49 49 49 49 49 49 49 49 49 49 49 49 49 49 49 50 49 49 48 47 47 47 47 46 45 44 43 42 43 44 45 45 44 44 44 44 44 44 45 49 54 58 60 62 62 60 59 58 58 58 59 59 60 60 60 61 61 61 60 60 59 59 58 58 56 56 56 56 55 56 56 56 57 57 57 58 58 59 60 61 62 62 63 65 67 68 68 68
53 52 51 50 50 49 49 49 49 49 50 49 49 49 49 49 49 49 49 49 49 49 49 49 49 49 49 49 49 49 50 49 49 48 48 48 47 47 47 45 44 44 44 44 44 45 45 45 44 44 43 43 44 45 48 53 56 58 60 61 61 60 59 59 59 60 60 61 61 62 62 62 62 62 62 62 61 61 60 59 58 57 56 56 56 56 56 56 56 56 56 57 58 58 59 60 61 62 63 65 67 68 68
55 54 54 53 52 51 49 49 49 49 49 49 49 49 49 49 49 49 49 49 49 49 49 49 49 49 49 49 49 50 50 49 49 49 48 48 48 47 47 45 44 44 44 45 44 44 44 44 44 43 43 43 43 44 46 52 55 56 58 59 60 61 61 60 61 61 61 62 62 62 62 62 63 63 63 63 62 62 62 62 60 59 58 57 56 56 56 56 56 56 56 57 57 58 58 59 60 62 63 65 67 67 68
55 55 55 55 55 54 53 51 50 50 50 49 49 49 49 49 49 49 49 49 49 49 49 49 50 50 50 50 50 50 50 49 49 49 48 48 48 47 46 46 45 45 45 44 44 44 44 44 43 43 43 43 43 44 45 50 53 55 57 58 59 60 61 62 62 62 62 62 62 61 61 62 62 62 62 63 63 63 63 63 62 61 59 58 57 56 57 57 57 58 58 58 58 58 59 60 61 63 65 66 67 67 67
56 55 56 55 56 55 55 54 54 53 53 52 51 50 49 50 50 50 50 49 49 49 49 50 50 50 50 50 49 49 49 49 49 48 48 47 47 47 46 46 46 46 46 44 44 44 44 44 43 43 43 44 44 44 45 48 51 54 56 58 59 60 62 62 62 62 62 62 62 61 61 61 61 61 62 62 62 62 63 63 63 62 60 58 57 56 57 57 58 58 58 59 59 61 63 64 65 66 67 67 67 67 67
56 56 55 55 55 55 56 56 56 56 56 56 56 54 53 54 55 56 57 57 56 54 52 52 50 49 49 49 49 48 48 49 49 48 48 48 48 48 47 47 46 46 46 45 45 45 44 44 44 44 44 44 44 44 45 47 50 53 56 56 58 59 59 60 61 61 62 62 62 61 61 60 60 61 61 61 62 62 62 63 63 62 61 59 57 56 57 57 57 58 58 59 60 62 66 67 67 67 67 67 67 66 66
56 56 55 55 55 55 55 56 56 56 56 57 57 56 55 54 54 53 53 53 51 50 49 49 49 50 49 49 49 49 49 49 49 48 48 48 48 48 48 47 46 46 46 46 46 46 44 44 43 44 44 44 44 44 45 47 50 53 55 56 56 57 56 56 58 59 60 62 62 62 61 61 61 61 61 61 61 62 62 63 64 63 62 60 58 57 57 57 57 57 58 59 61 63 66 67 67 67 67 66 66 66 65
56 56 56 55 55 55 55 56 56 56 56 56 56 55 53 52 51 51 50 50 50 50 49 49 49 50 49 49 49 49 49 49 48 47 47 47 47 47 47 47 47 47 46 46 46 45 44 44 44 44 44 44 44 44 44 46 49 52 54 55 55 56 56 55 55 56 58 59 61 61 61 61 61 61 61 61 62 62 62 63 64 64 64 62 61 59 59 58 58 58 58 59 61 64 66 67 67 67 66 66 66 65 65
56 56 55 55 55 55 55 56 56 56 56 56 56 55 54 53 52 51 50 50 50 50 49 49 49 48 49 49 49 49 50 49 48 48 47 47 47 47 47 47 47 47 47 46 46 45 44 44 44 44 44 44 44 43 44 45 47 49 51 52 53 55 55 54 53 54 55 57 58 60 61 61 61 61 61 62 62 62 62 63 64 65 65 64 63 62 60 59 59 58 58 59 61 63 65 66 66 66 66 65 65 65 65
56 56 55 55 55 55 56 56 55 55 56 55 55 55 54 53 52 50 49 48 49 49 49 48 48 48 48 48 48 49 49 49 48 48 48 47 47 47 46 47 47 47 47 47 46 45 45 44 44 44 44 44 43 43 43 44 44 45 46 49 50 52 53 53 54 54 54 54 55 57 60 60 60 60 61 61 62 62 62 63 63 64 65 65 65 64 62 61 60 59 59 59 61 63 65 65 66 65 65 65 64 64 64
55 55 55 55 55 55 55 55 55 55 55 55 54 54 53 53 51 49 48 47 48 48 48 48 48 47 47 48 48 47 48 48 47 47 47 46 46 46 45 45 46 46 46 47 46 45 45 45 44 44 44 43 43 43 42 42 43 43 44 45 47 49 51 53 54 53 53 53 53 55 58 59 59 59 60 60 60 61 61 62 62 63 63 64 65 65 64 63 62 61 60 61 62 64 65 66 66 66 66 65 65 64 64
55 55 54 54 54 54 54 54 54 54 54 53 53 53 53 52 51 49 48 48 48 48 49 48 48 48 48 48 48 47 47 46 46 45 45 44 44 44 44 44 45 46 46 47 46 45 45 45 45 45 44 43 42 42 42 42 42 42 43 44 46 48 50 52 51 51 51 53 53 53 54 58 58 58 58 58 58 59 59 60 60 61 62 62 63 64 64 64 63 62 62 62 63 65 66 66 66 66 66 65 65 65 64
54 53 53 53 53 53 53 53 53 53 52 52 52 53 53 52 51 50 49 49 49 49 48 49 49 48 49 48 48 47 46 46 45 45 44 44 43 43 43 43 44 45 45 45 45 45 46 46 47 46 45 43 42 41 41 41 42 42 42 43 44 45 46 47 47 48 49 51 52 52 52 54 56 57 57 57 57 57 58 58 58 59 59 60 61 62 63 63 63 63 63 64 65 66 66 66 65 65 64 64 64 63 63
53 53 52 52 52 52 52 52 52 51 51 51 51 52 51 52 51 51 50 50 50 49 49 49 49 49 49 48 47 47 46 46 45 45 44 44 43 43 43 44 44 45 45 45 45 46 46 46 48 48 45 42 41 41 41 41 41 41 41 41 41 42 42 43 44 45 46 48 49 50 51 51 53 54 55 55 56 56 56 56 56 57 57 58 59 60 61 61 62 62 63 64 65 65 66 66 65 64 63 63 62 62 62
52 52 51 51 50 50 50 50 50 51 51 50 49 49 49 50 50 51 51 51 51 51 50 51 50 49 49 49 48 47 47 46 46 45 44 44 44 44 44 44 45 45 45 45 45 45 46 47 47 46 44 43 42 41 41 42 41 40 40 40 40 40 40 40 41 41 42 44 46 48 49 49 49 50 50 52 53 54 55 54 54 55 55 56 57 57 58 58 59 60 61 62 62 63 64 65 65 64 63 62 62 62 61
50 50 50 49 49 49 49 49 50 50 50 49 48 48 48 48 49 49 49 49 50 50 50 50 50 50 50 49 48 48 47 47 46 46 46 45 44 44 45 45 46 46 45 45 45 45 46 47 46 45 44 43 42 42 43 43 42 40 40 39 39 39 38 38 38 39 39 40 42 44 46 47 47 47 48 49 50 51 53 53 53 53 54 54 54 55 56 56 57 58 59 59 60 61 62 62 63 63 63 62 62 61 60
48 48 48 48 48 48 49 49 49 49 49 48 47 47 47 47 47 47 47 47 48 49 49 49 48 49 49 50 49 48 47 46 46 46 45 45 44 45 46 46 46 46 45 45 45 45 46 46 46 45 44 44 43 42 43 44 42 40 39 39 38 37 37 37 37 37 37 37 38 39 40 41 42 44 46 47 48 49 50 51 51 52 52 53 53 53 54 54 54 55 56 57 58 58 59 59 60 60 61 60 60 60 59
46 46 46 47 47 47 48 49 49 49 49 48 47 47 47 47 47 47 47 47 48 49 50 49 48 47 48 48 47 47 46 46 45 45 44 44 44 44 45 46 46 45 45 45 45 46 48 45 44 45 44 44 43 42 43 42 41 40 40 39 38 37 37 37 36 36 36 35 35 36 36 37 38 40 41 43 44 46 47 48 49 49 51 51 52 52 52 52 53 53 54 54 55 56 57 57 58 58 58 58 58 58 58
45 45 44 45 45 45 45 47 48 49 49 49 48 47 47 47 48 48 49 49 49 49 50 51 50 48 47 46 46 46 45 45 45 45 44 43 43 43 44 44 45 45 45 45 46 47 48 44 44 44 44 44 43 42 42 41 40 40 40 38 37 36 36 36 36 36 35 35 34 34 35 35 35 36 37 38 40 41 43 44 44 45 48 49 50 50 50 51 51 51 52 52 53 54 55 55 56 56 57 57 57 57 57
44 43 43 43 43 43 43 44 45 47 47 48 49 49 48 49 49 49 49 49 49 49 49 49 49 48 46 46 45 45 45 44 45 45 44 43 42 42 43 43 44 44 45 45 46 47 46 44 44 44 44 43 43 42 41 40 40 39 39 37 36 36 35 36 36 35 35 34 34 34 34 34 34 34 35 35 36 38 40 41 42 43 44 45 46 47 48 49 49 50 50 51 51 52 53 53 54 54 55 55 55 55 55
41 41 41 41 41 41 41 42 43 45 47 48 47 47 49 49 49 49 48 48 48 48 48 49 49 48 47 46 45 45 45 45 44 44 43 43 43 43 42 41 42 43 44 44 46 47 47 45 44 43 43 43 43 43 42 40 39 38 37 36 36 36 35 36 36 35 35 34 34 33 33 33 33 33 33 33 34 35 37 39 41 42 43 43 43 43 44 46 48 49 49 49 49 50 51 52 52 53 53 53 53 54 54
38 38 39 39 40 40 40 40 42 44 47 45 44 44 45 46 47 47 47 47 47 47 48 48 48 48 47 47 46 45 45 45 44 44 43 43 43 43 41 42 42 42 42 43 44 45 46 45 45 45 44 43 43 43 42 40 39 38 37 36 36 35 35 36 36 35 35 34 33 33 33 32 32 32 31 32 32 34 36 38 40 42 44 44 44 43 44 45 46 47 48 49 49 49 49 50 50 51 51 52 52 52 52
37 37 37 37 38 38 39 39 40 41 43 43 43 43 44 44 44 45 46 47 47 47 48 47 47 47 46 47 47 46 47 46 45 44 44 44 43 42 41 40 40 40 40 42 43 43 44 44 44 45 45 44 43 43 43 40 40 38 37 36 35 35 35 36 35 35 35 34 34 33 33 32 31 31 31 31 31 32 34 36 39 41 43 43 43 43 43 45 46 47 47 48 48 49 49 49 49 49 50 50 50 51 51
36 36 36 36 36 36 37 37 38 40 41 42 42 43 43 43 44 44 45 45 46 47 48 48 47 46 46 45 45 46 47 47 46 45 45 44 44 43 42 40 38 37 38 40 41 41 41 41 42 43 45 44 44 43 43 41 40 39 38 36 35 36 36 36 35 35 35 34 34 34 33 32 31 31 31 31 31 31 32 34 36 39 41 42 42 42 43 44 45 46 47 47 48 48 48 48 48 48 49 49 49 49 49
36 35 35 35 35 35 35 36 37 39 40 41 41 42 42 42 43 43 44 44 45 46 47 47 47 46 45 45 45 45 45 47 46 45 45 45 44 43 42 42 42 41 38 38 38 39 39 39 40 42 44 44 43 43 43 42 41 40 39 37 36 36 36 35 35 34 34 34 34 34 33 32 31 31 31 31 31 31 31 32 34 36 38 40 41 43 44 44 45 45 45 46 47 48 46 47 47 47 47 47 47 47 48
36 35 35 34 34 34 34 35 36 37 39 40 40 40 41 41 42 42 43 43 44 44 46 46 46 46 46 45 45 45 45 45 45 45 45 45 45 45 44 43 41 39 37 36 36 37 38 38 40 42 44 43 43 42 42 43 42 41 40 39 37 36 36 35 35 34 34 34 34 34 34 32 31 31 30 30 30 31 31 31 32 34 35 38 40 41 42 42 43 43 44 44 44 45 45 45 45 45 45 45 46 46 46
37 36 35 34 34 33 33 34 35 36 37 38 39 39 40 40 41 42 42 43 43 44 44 44 45 45 45 45 45 45 44 44 46 47 46 45 46 46 44 44 43 41 39 38 38 38 39 39 40 42 43 43 44 44 43 43 42 42 42 41 39 38 37 36 35 34 34 34 34 34 34 33 31 30 30 30 30 30 30 31 31 33 35 37 39 40 40 40 41 42 43 43 43 43 44 44 44 44 45 45 45 45 45
38 37 36 35 35 34 33 34 34 35 36 38 37 37 39 40 40 41 42 42 43 43 43 44 44 44 44 44 44 44 44 44 44 45 46 45 44 44 44 44 44 44 44 42 42 41 40 39 40 41 40 42 43 44 42 42 42 42 42 41 41 40 39 38 36 35 34 33 33 32 32 31 31 30 30 30 30 30 30 30 31 32 35 38 40 40 41 42 43 43 42 42 42 42 42 43 44 44 44 44 45 45 45
39 38 38 37 36 35 34 34 34 35 36 37 36 36 37 38 40 41 41 41 42 43 42 43 44 45 46 44 44 44 44 44 44 44 44 44 44 44 42 42 43 44 45 44 43 42 41 40 39 38 39 40 42 43 43 42 42 42 42 41 41 40 39 37 35 34 33 32 31 31 30 30 30 31 30 30 31 31 31 30 31 31 34 37 39 40 42 43 44 43 43 42 42 41 41 42 43 43 44 44 44 44 45
40 39 38 38 37 36 35 34 34 34 35 36 35 35 35 37 38 40 41 41 43 44 43 42 43 44 46 44 44 44 44 43 42 42 43 44 44 44 44 42 42 42 43 42 41 41 41 40 40 40 40 40 40 41 43 42 40 40 41 41 40 39 37 36 35 33 31 30 29 28 29 29 30 30 30 30 30 31 31 30 30 31 32 35 37 38 40 39 39 40 42 42 41 41 41 41 42 42 43 44 44 44 44
40 40 39 38 37 36 35 34 33 34 35 36 35 34 34 35 36 38 40 41 42 43 42 42 42 43 44 44 44 44 44 43 42 42 43 44 44 44 44 42 41 40 41 40 40 40 40 39 40 40 40 40 40 39 41 40 39 39 41 40 39 38 37 35 34 32 30 28 27 27 27 28 28 29 30 30 30 30 30 30 30 30 31 33 35 36 37 36 36 37 39 40 40 40 40 40 41 42 43 43 43 43 44